Volver al catálogo

STARLINK-2537

ActivoComunicacionesVLEO
NORAD 48301·PAYLOAD·🇺🇸 United States

Lanzado Apr 29, 2021 desde Cape Canaveral Space Force Station

Loading…

Próximos Pases (próximas 24 horas)

TLE

ActualizadoSource: CelesTrak SupGP

Época: Sep 14, 2026, 20:55 UTC

1 48301C 21036AB  26257.87201389  .00016931  00000+0  54450-3 0  2575
2 48301  53.1572 290.7623 0001207  77.0678 283.7046 15.31691935    19

Sigue STARLINK-2537 en tiempo real con AllMySat

Download on the App Store